Wind_Speed
33 30 28 27 23 18 18 18 14 13 14 14 12 13 14 13 11 11 11 10 9 7 8 7 7 6 6 4 2 3 1 2 4 2 2 6 6 10 10 10 10 11 10
35 31 30 26 24 21 19 16 15 13 12 14 15 14 14 11 10 13 11 11 11 11 9 8 8 6 6 6 4 3 2 1 2 3 4 4 4 10 11 11 13 13 9
34 32 29 26 26 25 22 19 18 14 12 11 12 15 14 11 11 10 11 11 11 11 11 13 13 10 9 7 5 4 2 1 1 2 3 3 5 11 11 12 13 11 15
35 32 31 30 28 27 25 23 21 19 15 15 11 10 12 12 12 11 11 9 5 11 10 9 9 11 12 10 8 7 5 5 4 3 3 3 4 6 9 12 12 9 16
36 34 35 32 31 26 26 25 24 22 19 16 13 12 12 11 11 11 12 14 13 15 12 10 9 7 10 9 9 8 7 5 3 2 2 2 2 5 8 8 8 6 8
35 36 32 30 30 25 25 26 23 22 15 16 14 12 11 9 8 10 10 11 15 15 13 11 10 8 7 7 8 7 6 5 4 4 2 1 1 3 5 7 8 8 4
25 27 28 28 27 21 20 19 25 17 15 20 16 15 13 11 9 8 8 7 9 13 13 12 10 7 6 7 9 6 4 3 3 3 3 3 3 1 1 3 4 5 7
16 19 20 22 21 18 18 14 17 18 23 24 20 11 11 8 6 6 6 8 8 9 10 11 9 8 7 9 9 7 4 3 4 4 5 6 7 7 6 2 1 3 5
16 19 20 18 16 20 21 16 9 18 22 19 21 20 14 10 9 4 2 6 8 7 5 4 5 5 7 10 10 8 5 4 3 6 8 9 8 7 6 4 1 2 2
15 19 18 18 17 17 13 10 14 17 15 18 18 14 12 11 9 6 7 12 13 12 7 4 6 5 6 7 8 9 13 12 13 14 13 13 11 8 6 4 3 4 3
16 9 10 12 15 10 10 11 10 9 13 15 13 10 10 8 6 10 12 12 13 13 13 14 11 9 7 5 6 9 13 13 12 14 13 12 11 10 11 10 9 9 11
16 14 12 12 16 15 9 10 12 15 16 16 15 12 9 8 8 9 9 10 13 14 13 10 9 7 6 5 6 10 11 11 11 10 10 11 11 13 14 13 13 13 14
17 16 16 17 15 14 14 14 14 14 14 14 13 13 11 9 8 8 9 13 12 11 10 8 7 7 7 7 6 6 6 8 8 9 9 9 10 10 9 10 11 11 12
19 18 17 14 13 13 13 13 13 12 11 11 10 10 10 9 9 10 10 10 10 9 8 9 9 9 8 8 8 8 7 7 8 10 12 12 11 9 9 7 8 8 10
21 19 17 17 15 14 13 12 9 7 6 7 7 8 9 5 5 6 8 8 8 8 10 12 12 11 10 10 9 8 7 8 10 12 12 12 11 10 11 9 10 11 14
16 14 13 12 13 11 12 12 12 11 8 7 5 7 7 3 2 1 2 3 5 8 13 12 10 9 10 11 11 11 11 11 12 11 11 10 12 12 13 13 13 14 16
12 11 8 7 9 9 7 6 4 4 4 4 5 5 3 3 4 6 8 6 5 8 11 12 14 13 14 13 13 11 13 12 10 9 10 10 10 11 11 12 13 13 14
9 8 8 6 4 5 5 5 5 5 4 3 1 2 3 2 4 4 3 5 5 8 7 13 15 15 16 15 14 13 13 12 9 8 8 9 8 9 11 11 11 12 12
8 9 8 8 6 5 2 1 2 2 2 1 1 2 2 2 1 0 1 7 5 5 9 17 17 18 18 15 13 12 11 10 7 7 8 7 7 7 10 10 11 11 10
4 5 5 5 4 4 4 3 3 1 4 5 4 2 1 1 1 3 1 4 6 8 16 19 18 16 14 14 13 14 13 11 7 6 6 6 6 6 7 9 9 9 9
0 1 2 2 1 2 4 5 5 3 3 2 4 3 3 3 3 2 3 3 4 13 17 16 14 13 12 11 12 14 13 11 8 6 6 6 5 5 6 6 7 7 8
5 4 3 1 1 2 2 2 3 3 2 1 3 5 8 7 5 5 8 6 8 11 13 12 11 8 8 10 12 15 14 11 9 8 7 7 7 7 7 6 5 6 6
10 8 9 7 5 3 3 5 5 5 6 7 7 5 7 12 11 10 11 10 13 14 13 10 8 11 12 11 10 12 12 9 6 5 7 7 6 6 5 4 3 3 3
12 11 11 11 11 10 9 10 10 8 8 8 9 9 8 12 15 15 12 11 17 17 15 13 10 12 15 13 10 9 9 8 7 5 6 6 5 4 3 3 2 1 2
13 14 14 14 13 12 12 14 17 16 16 14 13 12 13 13 14 13 14 15 19 21 19 16 12 13 15 15 11 10 11 10 7 7 6 5 4 3 2 3 4 4 4
13 15 16 15 15 15 15 16 18 18 19 22 20 19 19 17 15 15 16 19 20 24 23 20 16 14 14 15 11 10 11 12 11 8 6 5 4 4 4 5 5 7 6
Wind_Direction
215 216 217 218 219 219 220 210 228 240 231 219 220 220 220 225 236 227 229 241 247 259 240 245 224 217 225 209 197 226 201 187 234 340 357 30 36 38 34 29 30 27 14
216 219 219 222 219 217 213 220 229 235 243 230 225 227 215 215 227 223 239 243 258 257 239 243 250 249 224 225 238 256 289 333 334 335 326 352 315 14 3 5 11 9 27
217 216 220 219 219 220 223 225 231 234 228 220 232 222 220 222 235 239 243 246 259 251 255 259 255 253 252 252 257 255 264 297 7 349 335 333 327 356 355 359 15 59 47
218 216 220 220 221 226 230 233 234 236 229 224 233 230 229 234 236 235 235 228 264 243 246 262 267 245 253 251 243 243 244 277 283 289 300 317 329 354 356 6 25 59 54
214 216 221 222 225 226 231 236 242 239 239 236 238 247 237 228 224 233 248 216 207 235 231 244 252 251 255 259 260 253 261 259 244 240 267 291 326 358 14 18 33 47 59
208 214 220 223 224 226 235 237 242 242 242 246 238 241 230 224 236 252 250 218 219 221 221 225 236 246 240 244 237 235 248 266 273 261 232 219 338 39 47 16 15 28 22
202 209 212 213 222 220 232 238 235 232 226 235 230 224 221 236 248 269 275 266 247 234 224 218 219 225 233 230 240 236 224 234 246 238 260 283 294 250 304 336 4 80 94
226 236 223 217 207 196 213 227 236 237 243 240 226 235 234 237 250 269 251 239 240 242 219 209 222 223 213 200 199 190 188 237 260 263 263 255 248 244 252 264 1 80 169
250 240 228 203 198 204 212 217 244 250 232 214 208 204 223 237 231 248 265 217 193 184 174 192 213 211 189 187 194 189 171 138 125 146 153 144 147 151 162 187 147 146 134
258 256 246 247 234 199 187 207 243 239 214 207 192 195 207 217 221 217 225 196 171 161 159 194 181 191 183 185 197 179 155 141 137 134 123 122 121 118 121 111 91 113 123
250 246 263 211 180 178 185 197 210 189 181 173 168 158 162 168 180 192 204 196 185 172 168 167 167 162 159 162 174 171 162 152 141 136 125 111 103 99 88 86 88 81 97
154 163 175 172 165 158 174 181 182 171 159 154 152 147 140 135 140 154 166 171 165 160 158 161 159 162 144 129 140 148 158 158 157 141 133 111 102 99 96 92 85 83 81
145 142 141 154 149 143 162 157 161 165 166 163 162 156 152 143 137 136 147 166 160 160 159 162 155 156 156 151 138 144 174 179 173 159 131 116 109 115 125 114 99 93 90
97 99 104 110 110 134 145 147 157 158 161 170 176 175 166 157 153 148 149 152 157 163 162 163 157 154 152 147 150 156 160 159 157 137 125 122 121 122 114 117 152 119 84
93 96 95 98 100 103 101 97 99 103 123 153 146 171 166 178 173 162 156 155 161 165 160 157 156 154 146 139 133 128 129 138 131 125 130 125 113 104 90 88 83 83 79
79 79 89 97 101 97 102 99 95 98 94 88 139 166 167 162 171 209 209 197 203 201 193 191 185 182 162 150 142 135 135 133 126 127 125 120 111 102 99 94 87 81 75
72 69 69 76 78 84 79 80 84 106 118 118 98 104 147 160 252 280 283 276 245 211 208 200 181 171 163 149 140 141 136 133 129 127 126 118 116 109 103 96 92 91 81
86 73 82 132 123 90 72 62 67 64 55 74 161 209 250 270 264 270 285 251 213 223 218 186 176 173 168 159 158 153 149 146 140 128 122 123 126 120 111 100 94 95 94
97 81 87 92 80 96 154 213 217 191 151 164 88 21 54 54 345 49 295 276 227 241 206 175 167 161 161 163 169 164 158 150 144 134 126 127 125 120 106 100 95 91 85
92 94 95 95 90 85 91 96 55 35 227 218 204 242 243 135 205 165 167 284 232 188 171 168 167 164 160 178 183 176 164 157 155 144 133 130 130 121 116 116 114 99 79
78 33 38 31 29 37 45 47 38 18 7 291 266 254 252 258 222 239 317 279 205 179 170 172 173 170 177 182 183 179 175 168 160 154 142 143 142 126 123 121 111 95 78
255 252 250 267 343 261 274 311 330 338 2 325 320 284 243 235 249 281 312 274 196 180 176 179 187 201 213 198 192 195 185 179 170 160 168 172 165 152 149 143 118 94 73
252 253 251 251 251 272 276 272 265 272 264 266 272 277 260 244 246 266 287 267 212 194 190 194 215 215 205 196 202 207 200 193 177 172 186 184 171 163 169 159 125 108 77
250 257 262 266 267 268 274 281 282 272 260 259 265 265 264 253 254 263 270 238 208 204 209 217 223 219 209 202 196 200 208 201 186 185 181 180 179 183 203 207 190 328 337
246 246 251 258 259 261 276 283 276 274 272 267 266 272 274 264 270 266 245 231 223 219 221 220 225 223 225 215 215 219 200 191 186 176 175 179 189 206 227 231 234 246 279
250 253 261 261 263 268 279 283 288 284 275 267 268 266 264 267 269 268 245 234 234 231 227 227 226 227 231 227 234 226 210 202 200 196 196 191 200 219 240 240 240 250 269
Height
826 829 831 834 837 839 841 842 844 846 846 848 850 851 851 853 854 855 856 857 857 857 858 858 858 858 857 857 856 856 855 854 856 853 852 851 850 849 848 847 845 844 842
821 826 829 832 835 837 839 841 842 843 844 846 847 849 850 851 852 853 854 854 855 856 857 856 856 856 856 855 855 855 854 853 854 852 853 852 851 850 848 847 844 843 842
818 822 827 830 833 835 837 839 842 843 843 844 846 846 848 849 850 850 851 852 852 853 854 854 854 854 854 854 853 852 852 852 851 851 852 852 851 850 848 846 845 843 842
813 816 821 824 828 832 833 836 838 840 841 842 843 844 844 846 847 847 848 849 849 851 852 853 853 853 853 853 853 853 852 852 851 851 850 850 851 850 848 846 845 843 843
806 811 814 819 823 826 829 831 834 836 838 839 841 842 843 843 843 844 846 847 846 848 849 850 850 851 851 852 851 851 851 851 851 850 850 850 851 850 848 847 844 844 845
801 805 810 816 819 821 824 827 830 831 834 836 838 839 840 840 840 841 843 843 845 847 848 848 848 849 849 849 850 850 850 849 849 849 849 849 849 848 847 846 846 846 847
802 804 806 810 815 816 821 822 826 827 829 831 833 836 837 838 838 839 840 840 842 843 844 846 847 847 848 848 848 848 848 847 846 847 849 848 848 847 847 847 846 846 847
803 805 806 807 809 810 817 820 822 824 824 828 828 831 834 837 837 837 837 838 839 840 842 844 846 846 846 847 848 848 847 846 845 845 845 845 846 846 847 847 846 846 847
806 806 805 805 807 807 813 816 820 822 822 824 825 828 832 833 836 836 836 837 837 838 840 843 845 845 845 846 847 847 847 846 845 844 843 844 844 844 846 847 847 846 846
804 805 805 805 807 810 812 814 818 819 819 822 825 827 829 829 833 834 836 836 835 836 837 841 844 844 845 846 846 846 847 848 847 847 848 846 846 846 846 846 847 846 847
798 801 806 806 806 807 811 813 814 818 821 824 825 827 828 830 831 832 834 836 835 835 835 839 842 844 844 845 845 846 847 849 850 849 849 850 849 849 847 848 847 848 846
793 798 801 798 796 802 808 812 814 819 822 825 827 830 832 831 831 832 832 834 836 838 841 843 844 844 844 845 846 846 847 848 851 852 851 851 851 851 850 849 851 850 849
798 801 799 805 804 801 809 813 817 819 822 825 827 829 831 832 833 833 834 835 836 838 841 843 843 844 844 846 847 847 849 848 848 849 851 853 852 852 852 851 852 854 851
801 802 803 806 808 811 813 814 817 821 822 826 829 831 832 833 835 835 835 837 837 838 841 842 843 845 846 846 848 848 849 850 849 849 850 851 852 853 853 853 851 852 852
811 811 810 811 814 817 817 818 821 823 824 825 828 831 832 836 836 835 836 837 838 839 841 842 842 843 845 847 849 851 852 852 850 850 851 852 854 854 854 854 854 854 855
818 820 820 820 820 822 823 823 823 824 827 827 829 832 833 836 837 839 837 837 837 839 840 841 842 845 845 847 850 850 850 852 853 854 854 855 854 855 856 856 856 855 856
823 823 823 825 825 826 827 828 829 830 829 830 831 833 834 834 837 837 838 837 839 837 837 839 838 842 848 849 851 854 854 856 857 856 854 855 857 856 857 856 855 855 857
826 827 828 828 830 830 831 831 830 832 832 832 833 834 834 833 835 835 838 839 835 838 839 837 841 842 847 849 852 853 855 855 857 858 857 857 859 857 856 858 856 854 857
827 827 828 829 831 831 832 833 832 831 832 835 834 833 832 833 835 835 837 840 835 835 837 838 841 842 846 850 854 853 853 857 860 856 857 859 861 860 858 858 858 859 858
829 830 830 831 834 836 835 834 834 833 832 833 832 833 834 833 834 836 837 839 836 834 837 840 841 843 843 851 853 852 852 854 858 858 858 859 861 859 859 859 858 857 858
829 829 829 829 830 832 832 832 833 833 833 832 831 831 833 835 837 838 837 837 835 834 835 839 843 844 848 849 849 850 853 854 854 857 857 859 861 861 862 862 860 858 856
828 829 830 830 829 829 830 831 831 831 832 833 834 833 833 835 837 837 837 836 836 836 837 840 844 845 845 845 847 850 850 853 854 852 855 858 858 858 859 859 858 856 855
826 826 828 829 829 829 830 831 831 833 831 833 834 833 832 834 835 835 835 835 836 837 839 841 843 843 843 845 847 849 849 850 850 851 855 856 855 856 858 858 855 855 855
823 824 826 827 828 827 828 828 830 830 831 831 832 831 831 832 833 834 834 833 835 837 838 839 840 841 842 843 844 845 848 848 850 851 852 852 854 854 855 855 855 855 856
820 821 823 824 824 824 825 825 826 826 827 828 828 828 828 829 829 829 830 831 834 835 836 837 838 839 840 842 843 844 844 846 847 849 850 851 851 851 851 852 853 853 854
816 817 819 820 820 821 822 822 821 821 822 823 824 824 825 825 825 826 827 827 829 831 833 834 834 836 837 839 841 842 843 845 846 847 848 848 848 848 849 850 851 852 852